This demonstration page uses our WeatherBlox Daily Observations layout. Learn more.

Left ArrowRight Arrow

39.95238, -75.16362

Hourly Observations for June 26, 2022

Temp ( °F °C ) Dew Point ( °F °C ) Humidity (%) Winds ( mph kmh ) Pressure ( in mb ) Visibility ( mi km ) Precip ( " mm )
12:54 am 00:54 Clear 75 23.9 68 20 79 79 SSW 6 9 30.12 1020 10 16 0.00 0.00
1:54 am 01:54 Clear 76 24.4 66 18.9 72 72 SW 12 19 30.13 1020 10 16 0.00 0.00
2:54 am 02:54 Mostly Clear 74 23.3 66 18.9 76 76 SW 10 17 30.12 1020 10 16 0.00 0.00
3:54 am 03:54 Mostly Clear 73 22.8 66 18.9 79 79 SW 8 13 30.12 1020 10 16 0.00 0.00
4:54 am 04:54 Mostly Clear 72 22.2 67 19.4 84 84 SW 9 15 30.12 1020 10 16 0.00 0.00
5:54 am 05:54 Mostly Sunny 72 22.2 67 19.4 84 84 SSW 5 7 30.13 1020 10 16 0.00 0.00
6:54 am 06:54 Mostly Sunny 72 22.2 68 20 87 87 SSW 6 9 30.14 1021 10 16 0.00 0.00
7:54 am 07:54 Mostly Sunny 75 23.9 67 19.4 76 76 SW 8 13 30.14 1021 10 16 0.00 0.00
8:54 am 08:54 Mostly Sunny 78 25.6 65 18.3 64 64 SW 9 15 30.13 1020 10 16 0.00 0.00
9:54 am 09:54 Mostly Sunny 81 27.2 64 17.8 57 57 SW 10 17 30.12 1020 10 16 0.00 0.00
10:54 am 10:54 Mostly Cloudy 84 28.9 63 17.2 49 49 SSW 12 19 30.11 1020 10 16 0.00 0.00
11:54 am 11:54 Partly Cloudy 86 30 63 17.2 46 46 SSW 9 15 30.11 1020 10 16 0.00 0.00
12:54 pm 12:54 Mostly Cloudy 88 31.1 62 16.7 42 42 SSW 12 19 30.09 1019 10 16 0.00 0.00
1:54 pm 13:54 Partly Cloudy 89 31.7 61 16.1 39 39 SSW 13 20 30.06 1018 10 16 0.00 0.00
2:54 pm 14:54 Partly Cloudy 90 32.2 61 16.1 38 38 SSW 13 20 30.04 1017 10 16 0.00 0.00
3:54 pm 15:54 Mostly Sunny 90 32.2 63 17.2 41 41 S 13 20 30.01 1016 10 16 0.00 0.00
4:54 pm 16:54 Mostly Sunny 90 32.2 61 16.1 38 38 S 16 26 30.00 1016 10 16 0.00 0.00
5:54 pm 17:54 Mostly Sunny 89 31.7 62 16.7 41 41 S 16 26 30.00 1016 10 16 0.00 0.00
6:54 pm 18:54 Mostly Sunny 86 30 62 16.7 45 45 S 14 22 30.01 1016 10 16 0.00 0.00
7:54 pm 19:54 Partly Cloudy 83 28.3 64 17.8 53 53 S 9 15 30.00 1016 10 16 0.00 0.00
8:54 pm 20:54 Partly Cloudy 80 26.7 65 18.3 60 60 SSE 6 9 30.01 1016 10 16 0.00 0.00
9:54 pm 21:54 Partly Cloudy 80 26.7 65 18.3 60 60 S 9 15 30.02 1017 10 16 0.00 0.00
10:54 pm 22:54 Mostly Cloudy 78 25.6 65 18.3 64 64 S 8 13 30.03 1017 10 16 0.00 0.00
11:54 pm 23:54 Mostly Cloudy 77 25 63 17.2 62 62 SSW 8 13 30.03 1017 10 16 0.00 0.00

Powered by AerisWeather